Location: Newark
(25.0000°N, 73.5000°E)
Time: 12:02:47
(UTC+00:00)

Altair - Pass Details

Date: 05 March 2021
Orbit: 1501 x 1683 km, 47.2° (Epoch: 15 April)

Event Time Altitude Azimuth Distance (km) Brightness Sun altitude
Rises 14:05:13 0° 269° (W) 4,627 12.1 -13.3°
Reaches altitude 10° 14:08:53 10° 281° (WNW) 3,652 10.8 -14.1°
Maximum altitude 14:16:20 27° 336° (NNW) 2,594 8.9 -15.8°
Drops below altitude 10° 14:23:57 10° 31° (NNE) 3,727 9.2 -17.5°
Enters shadow 14:26:46 - 41° (NE) 4,461 9.6 -18.1°
Sets 14:27:47 0° 44° (NE) 4,739 - -18.4°
